Regional Weather Roundup
Issued by NWS Charleston, SC

Current Version | Previous Version | Text Only | Print | Product List | Glossary Off
Versions: 1 2 3 4 5 6 7 8 9 10 11 12 13 14 15 16 17 18 19 20 21 22 23 24 25 26 27 28 29 30 31 32 33 34 35 36 37 38 39 40 41 42 43 44 45 46 47 48 49 50

000
ASUS42 KCHS 090727
RWRCHS

REGIONAL WEATHER ROUNDUP
NATIONAL WEATHER SERVICE CHARLESTON SC
200 AM EST TUE FEB 09 2016

NOTE: "FAIR" INDICATES FEW OR NO CLOUDS BELOW 12,000 FEET WITH NO
SIGNIFICANT WEATHER AND/OR OBSTRUCTIONS TO VISIBILITY.

NOT ALL STATIONS ARE QUALITY CONTROLLED BY THE NATIONAL
WEATHER SERVICE. USE DATA WITH CAUTION...ESPECIALLY
DEWPOINT OBSERVATIONS.

NOTICE: OBSERVATIONS FOR THE SAVANNAH-HILTON HEAD INTERNATIONAL AIRPORT
/KSAV/ HAVE BEEN TEMPORARILY REMOVED DUE TO AN ERRONEOUS TEMPERATURE
SENSOR. THE OBSERVATION WILL BE REINTRODUCED ONCE REPAIRS ARE COMPLETE.

SCZ027-030-031-034>040-042>050-090800-
...SOUTHEAST SOUTH CAROLINA...

CITY           SKY/WX    TMP DP  RH WIND       PRES   REMARKS
N CHARLESTON   CLEAR     42  34  73 MISG      29.75
WATERFRONT PRK   N/A     44  37  76 W6        29.60R
MOUNT PLEASANT FAIR      43  34  70 W9        29.74S
JOHNS ISLAND   FAIR      41  34  75 W8G15     29.76R
PINOPOLIS        N/A     45  34  65 W14       29.65R
MONCKS CORNER  FAIR      37  28  70 W5        29.74R WCI  34
SUMMERVILLE    FAIR      41  32  70 W8        29.76S
BEAUFORT MCAS  CLEAR     41  33  73 W12       29.79R
BEAUFORT ARPT  FAIR      41  32  70 W9        29.79R
HILTON HEAD IS CLEAR     43  34  70 W7        29.81R
WALTERBORO     SUNNY     41  34  75 W8        29.77S
ALLENDALE      FAIR      39  28  65 CALM      29.77S

...SOUTHERN MIDLANDS AND PEE DEE...

CITY           SKY/WX    TMP DP  RH WIND       PRES   REMARKS
GEORGETOWN     NOT AVBL
KINGSTREE      NOT AVBL
ORANGEBURG     CLEAR     40  26  57 W12       29.74R WCI  33
BARNWELL       FAIR      39  28  65 SW8       29.77S WCI  34
AIKEN          FAIR      37  21  52 W15       29.78S WCI  28
MANNING        FAIR      41  27  56 W8        29.72R
COLUMBIA       CLEAR     38  25  59 W9        29.72S WCI  31
SUMTER         PTCLDY    38  28  66 W9        29.68S WCI  31
FLORENCE       CLEAR     40  32  73 W10       29.66R WCI  33
MYRTLE BEACH   CLEAR     43  34  70 W8        29.69S
N MYRTLE BEACH PTCLDY    45  39  79 W10       29.65S

$$

GAZ063-065-086>088-099>101-113>116-118-119-134>141-150-090800-
...SOUTHEAST GEORGIA...

CITY           SKY/WX    TMP DP  RH WIND       PRES   REMARKS
SAVANNAH ARPT  CLEAR     39  33  79 W8        29.82R WCI  33
HUNTER AAF     CLEAR     38  36  91 W7        29.80R WCI  33
FORT STEWART   CLEAR     40  34  79 W6        29.82R WCI  36
STATESBORO     CLEAR     44  27  51 NW13      29.82S
SYLVANIA       MOSUNNY   38  34  85 W8        29.81S WCI  32
CLAXTON        FAIR      40  34  79 SW8       29.84R WCI  35

...CSRA...CENTRAL AND FAR SOUTHEAST GEORGIA...

CITY           SKY/WX    TMP DP  RH WIND       PRES   REMARKS
THOMSON        PTCLDY    39  26  59 W6        29.84S WCI  35
AUGUSTA-BUSH   CLEAR     41  24  51 W15       29.79R
AUGUSTA-DANIEL CLEAR     41  22  46 W12       29.79R
SWAINSBORO     FAIR      37  30  75 W5        29.84R WCI  34
VIDALIA        PTCLDY    41  28  60 NW10G16   29.85R
EASTMAN        FAIR      41  22  47 W5        29.89S
HAZLEHURST     FAIR      40  32  71 W5        29.86R WCI  37
ALMA           CLEAR     42  29  59 W8        29.87R
WAYCROSS       CLEAR     45  33  63 W7        29.89R
JESUP          FAIR      45  36  70 NW8       29.86R
BAXLEY         FAIR      43  32  65 W7        29.87R
BRUNSWICK      MOCLDY    43  36  75 W7        29.87R
SAINT SIMONS   CLOUDY    46  36  68 W8G16     29.85R

$$

SCZ027-028-034-036>038-045-046-048>050-GAZ119-141-090800-
...LAKE AND SUPPLEMENTAL COASTAL OBSERVATIONS...

STATION/POSITION TIME  TEMP    WIND        PRES    WAVE   SWELL
                       AIR SEA DIR/SP/G            HT/PER HT/PER/DIR
                 (UTC) (F)     (DEG/KT/KT) (MB)    (FT/S) (FT/S/D)
WINYAH BAY       0600   45     260/  7     1004.0S
LAKE MURRAY      0700   42     270/ 16/ 22 1005.8S
ACE BASIN NERRS  0600   42     290/  2     1008.0
FORT PULASKI     0700   43 52  260/ 10/ 12 1009.6R
SAPELO ISLAND    0700   45     260/  9     1010.0S

$$

ANZ835-935-AMZ111-154-330-350-352-354-370-450-454-472-090800-
...C-MAN AND BUOY OBSERVATIONS...

STATION/POSITION TIME  TEMP    WIND        PRES    WAVE   SWELL
                       AIR SEA DIR/SP/G            HT/PER HT/PER/DIR
                 (UTC) (F)     (DEG/KT/KT) (MB)    (FT/S) (FT/S/D)
BUOY 41004       0650   53 65  290/ 27/ 31 1005.3F   7/ 8   5/ 8
BUOY 41008       0650   49 55  300/ 19/ 23 1009.9R   3/ 3   2/180/ 6
FOLLY BEACH CMAN 0700   42     270/  7/ 12 1007.6R
CAPERS NEARSHORE 0608   48     290/ 17/ 23 1006.3R
FRIPP NEARSHORE  0600   48     300/ 14/ 16 1008.1R


STATION/POSITION TIME  TEMP    WIND        PRES    WAVE   SWELL
                       AIR SEA DIR/SP/G            HT/PER HT/PER/DIR
                 (UTC) (F)     (DEG/KT/KT) (MB)    (FT/S) (FT/S/D)
5E ST. MARYS GA  0621      56                N/A     3/17   2/100/17
FRYING PAN BUOY  0700   53 61  280/ 17/ 23 1003.8F
BUOY 41025       0650   48 73  320/ 10/ 14 1002.0F  11/15  11/ 80/15
CAPE LOOKOUT NC  NOT AVBL
BUOY 41002       0650   63 69  240/ 25/ 29   N/A    12/ 8   7/360/15
BUOY 41010       0620   68 72              1008.0F
ST AUGUSTINE FL  0700   51 57  300/  7/  9 1012.6R


$$



USA.gov is the U.S. government's official web portal to all federal, state and local government web resources and services.